User: anonymous   Login
Location: Unspecified
(0.0000°N, 0.0000°E)
Time: 09:22:04
(UTC+00:00)
Language:

TIGRISAT - Orbit

View from above orbital plane
View from above orbital plane
View from above satellite
View from above satellite

Ground track
Ground track

The orbit data is extracted from the following two-line orbital elements,

1 40043U 14033AK  17086.91640141 +.00000268 +00000-0 +47451-4 0  9991
2 40043 097.8689 333.9385 0059809 194.4727 165.4771 14.73934236148566
Epoch (UTC): 27 March 2017 21:59:37
Eccentricity: 0.0059809
inclination: 97.8689°
perigee height: 606 km
apogee height: 690 km
right ascension of ascending node: 333.9385°
argument of perigee: 194.4727°
revolutions per day: 14.73934236
mean anomaly at epoch: 165.4771°
orbit number at epoch: 14856

The dashed part of the orbit path shows where the satellite is in the earth's shadow,  

DLR